Location: Unspecified
(0.0000°N, 0.0000°E)
Time: 03:16:22
(UTC+00:00)

S-56A Canister/Altair - Pass Details

Date: 19 December 2018
Orbit: 633 x 2500 km, 38.9° (Epoch: 18 March)

Event Time Altitude Azimuth Distance (km) Brightness Sun altitude
Rises 22:18:49 0° 238° (WSW) 2,934 - -56.5°
Reaches altitude 10° 22:20:59 10° 242° (WSW) 2,078 - -56.9°
Maximum altitude 22:25:32 56° 321° (NW) 904 - -57.7°
Drops below altitude 10° 22:31:31 10° 38° (NE) 2,715 - -58.7°
Sets 22:34:43 0° 42° (NE) 3,939 - -59.2°
